Погода в Дубровке

Россия / Томская область     56°43′44″N   86°26′33″E
темп.,
°C
ветер,
м/с
пор.,
м/с
влажн.,
%
обл.,
%
осадки,
мм/ч
давл.,
гПа
погр.,
м
3 марта, ср
ср301:00−20вюв2310085 0.1 101820
04:00−21вюв2210093 0.0 101720
07:00−20вюв239892 0.1 101828
10:00−19вюв239772 0.0 101889
13:00−13юв238882 0.0 1018357
16:00−10ююв2386100 0.0 1019485
19:00−13юв339399 0.1 101933
22:00−13ююз369596 0.1 1020134
4 марта, чт
чт401:00−13ююз4109486 0.1 1021279
04:00−14ююз5129380 0.0 1020333
07:00−13ююз7158889 0.0 1020508
10:00−11ююз81686100 0.0 1019647
13:00−8ююз81490100 0.2 1018756
16:00−6ююз81488100 0.2 1017821
19:00−5ююз71490100 0.3 1016733
22:00−5ююз71490100 0.1 1015740
5 марта, пт
пт501:00−5ююз71491100 0.2 1014716
04:00−6ююз81490100 0.1 1012553
07:00−6ююз81590100 0.2 1011566
10:00−6ююз81587100 0.0 1010662
13:00−4ююз91585100 0.0 1009856
16:00−3юз91492100 0.4 10081061
19:00−3юз81585100 0.5 1011888
22:00−6юз7158591 0.0 1012714
6 марта, сб
сб601:00−6юз8149196 0.5 10141121
04:00−8юз5139295 0.1 1015488
07:00−7юз6139094 0.1 1016591
10:00−5ююз61289100 0.0 1015774
13:00−4ююз71292100 0.4 1013901
16:00−4ююз81493100 0.8 10111107
19:00−4ююз81584100 1.4 10091082
22:00−5юз91592100 0.4 10081049
7 марта, вс
вс701:00−5юз91689100 0.7 1007976
04:00−4юз91784100 0.1 1007897
07:00−3зюз81589100 0.3 10091141
10:00−4зюз81483100 0.1 10111083
13:00−3зюз81279100 0.2 10131156
16:00−3зюз61080100 0.0 10131066
19:00−5юз3986100 0.0 1013240
22:00−3ю41196100 0.4 1012567